Home   Weather   Abeokuta   Past weeks

Flag for Nigeria Past Weather in Abeokuta, Nigeria — Yesterday and Last 2 Weeks

Now
90 °F

Partly sunny.


Feels Like: 108 °F
Forecast: 75 / 96 °F
Wind: 5 mph from Southwest

Location: Lagos / Ikeja

Current Time: Dec 3, 2016 at 12:48:56 pm

Latest Report: Dec 3, 2016 at 12:00 pm


Visibility: 5 mi

Pressure: 29.89 "Hg

Humidity: 75%

Dew Point: 81 °F

Location of AbeokutaLocation

Past Weather in Abeokuta — Graph

°F

Abeokuta Temperature Yesterday

Maximum temperature yesterday: 95 °F (at 2:00 pm)
Minimum temperature yesterday: 79 °F (at 5:00 am)
Average temperature yesterday: 85 °F

High & Low Weather Summary for the Past Weeks

 TemperatureHumidityPressure
High95 °F (Dec 2, 2:00 pm)100% (Nov 20, 6:00 am)29.98 "Hg (Nov 20, 6:00 am)
Low72 °F (Nov 28, 3:00 pm)59% (Nov 27, 3:00 pm)29.77 "Hg (Nov 20, 6:00 am)
Average83 °F85%29.87 "Hg
* Reported Nov 18 11:00 am — Dec 3 11:00 am, Abeokuta, Weather by CustomWeather, © 2016

Note: Actual official high and low records may vary slightly from our data, if they occured in-between our weather recording intervals... More about our weather records

Advertising

Abeokuta Weather History for the Previous 24 Hours

Scroll right to see more
 ConditionsComfort  
Time TempWeatherWind HumidityBarometerVisibility
11:00 am
Sat, Dec 3
88 °FPartly sunny.5 mph79%29.92 "Hg5 mi
10:00 am86 °FScattered clouds.5 mph84%29.92 "Hg3 mi
9:00 am84 °FHaze.5 mph94%29.92 "Hg2 mi
8:00 am81 °FFog.5 mph94%29.92 "Hg2 mi
7:00 am79 °FScattered clouds.2 mph94%29.89 "Hg4 mi
6:00 am79 °FPassing clouds.2 mph94%29.86 "Hg5 mi
5:00 am79 °FPassing clouds.2 mph94%29.86 "Hg5 mi
4:00 am81 °FPassing clouds.2 mph94%29.86 "Hg5 mi
3:00 am81 °FPassing clouds.No wind94%29.86 "Hg5 mi
2:00 am81 °FPassing clouds.2 mph94%29.86 "Hg5 mi
1:00 am81 °FPassing clouds.No wind94%29.89 "HgN/A
12:00 am82 °FPassing clouds.2 mph89%29.89 "HgN/A
11:00 pm
Fri, Dec 2
82 °FPassing clouds.No wind84%29.89 "HgN/A
10:00 pm82 °FPassing clouds.3 mph89%29.89 "HgN/A
9:00 pm82 °FPassing clouds.3 mph89%29.89 "HgN/A
8:00 pm84 °FPassing clouds.3 mph84%29.89 "HgN/A
7:00 pm84 °FPassing clouds.5 mph84%29.86 "HgN/A
6:00 pm86 °FPassing clouds.6 mph79%29.83 "HgN/A
5:00 pm90 °FScattered clouds.8 mph71%29.83 "HgN/A
4:00 pm93 °FPartly sunny.7 mph67%29.86 "Hg5 mi
3:00 pm93 °FPartly sunny.6 mph63%29.86 "Hg5 mi
2:00 pm95 °FPartly sunny.5 mph60%29.86 "Hg5 mi
1:00 pm93 °FPartly sunny.3 mph63%29.89 "Hg5 mi
12:00 pm93 °FPartly sunny.2 mph67%29.92 "Hg5 mi
Weather by CustomWeather, © 2016

See weather overviewHow to use our weather pages